Overview Statistics Trail Chart Weather Telemetry Raw packets
 

This is the latest recevied weather packets stored in our database for station/object WW5JC. If no packets are shown the sender has not sent any weather packets the latest 10 day(s).

<< 102 103 104 105 106 107 108 >>
Time Temp. Humidity Pressure Rain* Wind** Luminosity Snow
1787858564 35.56° C 43% 1017.6 hPa 0 mm - 610 W/m² -
1787858264 35.56° C 41% 1017.5 hPa 0 mm - 607 W/m² -
1787857960 35° C 42% 1017.5 hPa 0 mm - 672 W/m² -
1787857656 35.56° C 41% 1017.6 hPa 0 mm - 661 W/m² -
1787857351 35° C 45% 1017.6 hPa 0 mm - 606 W/m² -
1787857044 35° C 45% 1017.5 hPa 0 mm - 658 W/m² -
1787856744 35° C 45% 1017.9 hPa 0 mm - 657 W/m² -
1787856438 34.44° C 46% 1017.7 hPa 0 mm - 603 W/m² -
1787856134 35° C 45% 1017.7 hPa 0 mm - 636 W/m² -
1787855829 33.89° C 48% 1017.8 hPa 0 mm - 659 W/m² -
1787855523 34.44° C 48% 1017.7 hPa 0 mm - 688 W/m² -
1787855214 34.44° C 47% 1017.8 hPa 0 mm - 684 W/m² -
1787854909 33.89° C 48% 1018 hPa 0 mm - 681 W/m² -
1787854608 34.44° C 49% 1018 hPa 0 mm - 623 W/m² -
1787854302 33.89° C 50% 1018 hPa 0 mm - 676 W/m² -
1787853999 34.44° C 49% 1018.1 hPa 0 mm - 676 W/m² -
1787853697 34.44° C 49% 1018.3 hPa 0 mm - 654 W/m² -
1787853392 33.89° C 48% 1018.1 hPa 0 mm - 597 W/m² -
1787853092 33.89° C 50% 1018.3 hPa 0 mm - 666 W/m² -
1787852786 33.89° C 50% 1018.2 hPa 0 mm - 666 W/m² -
1787852492 33.89° C 52% 1018.1 hPa 0 mm - 660 W/m² -
1787852185 33.33° C 52% 1018.3 hPa 0 mm - 658 W/m² -
1787851880 33.33° C 54% 1018 hPa 0 mm - 649 W/m² -
1787851579 33.89° C 53% 1018.4 hPa 0 mm - 645 W/m² -
1787851274 33.33° C 55% 1018.1 hPa 0 mm - 640 W/m² -

* Rain latest hour (hover to see other rain measurements)
** Current wind speed in m/s (hover to see current wind gust speed)